TimeSAST,TemperatureF,Dew PointF,Humidity,Sea Level PressureIn,VisibilityMPH,Wind Direction,Wind SpeedMPH,Gust SpeedMPH,PrecipitationIn,Events,Conditions,WindDirDegrees,DateUTC
12:00 AM,51.8,41.0,67,30.09,6.2,WNW,8.1,-,N/A,,Mostly Cloudy,300,2013-06-03 22:00:00
1:00 AM,51.8,37.4,58,30.09,-9999.0,West,11.5,-,N/A,,Clear,280,2013-06-03 23:00:00
2:00 AM,53,38,46,30.10,44,WNW,15.0,,,,,300,2013-06-04 00:00:00
2:00 AM,51.8,37.4,58,30.09,-9999.0,WNW,13.8,-,N/A,,Clear,300,2013-06-04 00:00:00
3:00 AM,55.4,37.4,51,30.09,6.2,WNW,17.3,-,N/A,,Mostly Cloudy,300,2013-06-04 01:00:00
4:00 AM,53.6,37.4,54,30.06,6.2,WNW,16.1,-,N/A,,Partly Cloudy,300,2013-06-04 02:00:00
5:00 AM,56,38,39,30.08,12,WNW,17.3,,,,Mostly Cloudy,300,2013-06-04 03:00:00
5:00 AM,55.4,39.2,54,30.06,6.2,WNW,17.3,29.9,N/A,,Scattered Clouds,300,2013-06-04 03:00:00
6:00 AM,55.4,39.2,54,30.06,6.2,WNW,16.1,-,N/A,,Scattered Clouds,300,2013-06-04 04:00:00
7:00 AM,55.4,39.2,54,30.09,6.2,WNW,18.4,-,N/A,,Mostly Cloudy,290,2013-06-04 05:00:00
8:00 AM,57,39,39,30.11,12,WNW,92.1,,,,Mostly Cloudy,290,2013-06-04 06:00:00
8:00 AM,57.2,39.2,51,30.09,6.2,WNW,18.4,-,N/A,,Mostly Cloudy,290,2013-06-04 06:00:00
9:00 AM,57.2,41.0,55,30.12,6.2,WNW,15.0,-,N/A,,Scattered Clouds,300,2013-06-04 07:00:00
10:00 AM,59.0,41.0,51,30.12,6.2,WNW,21.9,-,N/A,,Mostly Cloudy,290,2013-06-04 08:00:00
11:00 AM,61,42,38,30.15,12,WNW,17.3,,,,Partly Cloudy,290,2013-06-04 09:00:00
11:00 AM,60.8,41.0,48,30.12,6.2,WNW,17.3,-,N/A,,Scattered Clouds,290,2013-06-04 09:00:00
12:00 PM,60.8,41.0,48,30.12,6.2,WNW,24.2,-,N/A,,Scattered Clouds,290,2013-06-04 10:00:00
1:00 PM,60.8,41.0,48,30.12,6.2,WNW,20.7,-,N/A,,Mostly Cloudy,290,2013-06-04 11:00:00
2:00 PM,62,42,35,30.12,12,West,19.6,,,,Mostly Cloudy,280,2013-06-04 12:00:00
2:00 PM,60.8,41.0,48,30.09,6.2,West,19.6,-,N/A,,Mostly Cloudy,280,2013-06-04 12:00:00
3:00 PM,62.6,41.0,45,30.09,6.2,West,25.3,39.1,N/A,,Mostly Cloudy,270,2013-06-04 13:00:00
4:00 PM,60.8,42.8,52,30.12,6.2,West,20.7,-,N/A,,Mostly Cloudy,270,2013-06-04 14:00:00
5:00 PM,59,44,48,30.14,12,West,19.6,,,,Mostly Cloudy,260,2013-06-04 15:00:00
5:00 PM,59.0,44.6,59,30.12,6.2,West,19.6,-,N/A,,Mostly Cloudy,260,2013-06-04 15:00:00
6:00 PM,59.0,42.8,55,30.15,6.2,West,18.4,-,N/A,,Mostly Cloudy,260,2013-06-04 16:00:00
7:00 PM,55.4,44.6,67,30.15,6.2,West,19.6,-,N/A,,Mostly Cloudy,280,2013-06-04 17:00:00
8:00 PM,56,45,58,30.19,12,WNW,15.0,,,,Mostly Cloudy,290,2013-06-04 18:00:00
8:00 PM,55.4,44.6,67,30.18,6.2,WNW,15.0,-,N/A,,Mostly Cloudy,290,2013-06-04 18:00:00
9:00 PM,57.2,44.6,63,30.18,6.2,West,19.6,-,N/A,,Mostly Cloudy,280,2013-06-04 19:00:00
11:00 PM,57.2,44.6,63,30.21,6.2,West,19.6,-,N/A,,Mostly Cloudy,270,2013-06-04 21:00:00